[[{"header":{"parameterUnit":"m.s-1","parameterCategory":1,"la1":30.2991,"la2":30.254,"lo1":-89.0895,"lo2":-89.0444,"dy":0.0017,"dx":0.0017,"nx":28,"ny":28,"refTime":"2025-06-16T21:00:00:Z","depth":0,"parameterNumber":2,"parameterNumberName":"U-component_of_WINDS"},"data":[0,0,0,0,0,0,0,0,0,0,0,0,0,0,0,0,0,0,0,0,0,0,0,0,0,0,0,0,0,0,0,0,0,0,0,0,0,0,0,0,0,0,0,0,0,0,0,0,0,0,0,0,0,0,0,0,0,0,2.414,2.414,0,2.4111,2.4111,2.411,2.4032,2.4031,2.4029,2.4028,2.3998,2.3999,2.3999,0,0,0,0,0,0,0,0,0,0,0,0,0,2.4126,2.4127,2.414,2.414,2.4139,2.4111,2.4111,2.411,2.4033,2.4031,2.4029,2.4027,2.3998,2.3999,2.4,0,0,0,0,0,0,0,0,0,0,0,0,0,2.4118,2.4127,2.414,2.4097,2.4093,2.4111,2.4111,2.411,2.4033,2.4031,2.4028,2.4026,2.3997,2.3999,2.4,2.4057,0,0,2.4003,2.4004,0,0,0,0,0,0,0,0,2.4119,2.4119,2.4104,2.41,2.4096,2.4073,2.4095,2.4092,2.4034,2.4056,2.4028,2.4025,2.4025,2.4024,2.4024,2.4056,2.4054,2.4003,2.4004,2.4004,2.4005,0,0,0,0,0,0,0,2.4119,2.412,2.4129,2.4104,2.4099,2.4079,2.4075,2.4094,2.4055,2.4054,2.4048,2.4046,2.4022,2.4023,2.4022,2.4054,2.4003,2.4004,2.4005,2.4005,2.4126,2.4129,0,0,0,0,0,0,2.4126,2.4121,2.4129,2.4128,2.4101,2.4081,2.4077,2.4083,2.4054,2.4048,2.4048,2.4042,2.4022,2.4021,2.4021,2.4082,2.4004,2.4006,2.4006,2.4124,2.4127,2.413,0,0,0,0,0,0,2.4126,2.4128,2.4131,2.4123,2.4121,2.4084,2.4091,2.4083,2.4084,2.405,2.4042,2.4056,2.402,2.4019,2.4047,2.4081,2.4006,2.4007,2.4121,2.4125,2.4128,2.4209,0,0,0,0,0,0,2.4126,2.4128,2.415,2.4124,2.4122,2.4159,2.4093,2.4085,2.4086,2.4078,2.4055,2.4049,2.4018,2.4046,2.4049,2.4081,2.4008,2.4118,2.4123,2.4127,2.4203,2.4215,2.4225,0,0,0,0,0,2.4126,2.4175,2.4152,2.4153,2.4149,2.4161,2.416,2.4123,2.4089,2.411,2.4088,2.405,2.4077,2.405,2.4052,2.4085,2.4115,2.4121,2.4127,2.4198,2.4212,2.4225,0,0,0,0,0,0,2.4208,2.4171,2.4145,2.4187,2.4177,2.4148,2.4173,2.414,2.414,2.4133,2.4087,2.4082,2.4116,2.4104,2.4074,2.4137,2.409,2.4096,2.4143,2.4157,2.4167,2.4168,2.4009,0,0,0,0,0,2.4231,2.4243,2.4211,2.4251,2.4247,2.4211,2.4215,2.4187,2.4175,2.4171,2.4151,2.4141,2.4146,2.4151,2.4155,2.4201,2.4193,2.4225,2.4236,2.4245,2.425,2.427,2.4282,2.4148,2.4148,2.4148,0,0,2.4278,2.426,2.4271,2.4267,2.4256,2.4269,2.4208,2.4226,2.4234,2.4174,2.4198,2.4183,2.4168,2.4204,2.4219,2.4195,2.4286,2.4252,2.426,2.426,2.4277,2.4289,2.4301,2.4152,2.4152,2.4151,0,0,2.437,2.4359,2.4389,2.4379,2.4363,2.4338,2.4346,2.432,2.4307,2.4331,2.4285,2.4294,2.4306,2.4296,2.4293,2.4379,2.4342,2.4381,2.4438,2.4457,2.4468,2.4477,2.4504,2.4514,2.4387,2.4388,2.4388,0,2.4431,2.4449,2.4409,2.4428,2.4426,2.4371,2.44,2.4392,2.4379,2.4378,2.4352,2.4363,2.435,2.4381,2.4401,2.4402,2.4406,2.4383,2.447,2.4478,2.4486,2.4511,2.4522,2.4392,2.4392,2.4391,2.4391,0,2.4522,2.4535,2.4561,2.4548,2.4549,2.4574,2.4536,2.4542,2.4514,2.4492,2.4515,2.4497,2.4494,2.45,2.4473,2.4526,2.4511,2.4478,2.4429,2.4504,2.4527,2.4536,2.4399,2.4397,2.4396,2.4394,0,0,2.4665,2.4627,2.4637,2.4628,2.4606,2.4615,2.4636,2.4632,2.4636,2.4629,2.4643,2.4653,2.4621,2.4618,2.4589,2.4607,2.4671,2.4571,2.457,2.4587,2.4724,2.4746,2.4758,2.4648,2.465,2.4651,2.4724,0,2.4748,2.4781,2.4744,2.4784,2.4793,2.474,2.4758,2.4745,2.4725,2.4729,2.4706,2.4713,2.4672,2.4669,2.4684,2.466,2.4697,2.4655,2.4658,2.4659,2.466,2.4771,2.4796,2.4865,2.4733,2.4734,2.4735,0,2.485,2.4845,2.4885,2.4857,2.4859,2.4876,2.4867,2.4874,2.4857,2.4841,2.4835,2.4801,2.4817,2.4772,2.4792,2.4764,2.4763,2.4752,2.4753,2.475,2.4699,2.4767,2.4887,2.4896,2.475,2.4748,2.4747,0,2.4945,2.4949,2.4972,2.4967,2.4936,2.4947,2.4935,2.4916,2.4915,2.4909,2.4907,2.4903,2.49,2.4897,2.4861,2.4833,2.4885,2.4838,2.4869,2.487,2.488,2.488,2.4999,2.4886,2.4886,2.4886,2.4886,0,2.504,2.5066,2.5013,2.5028,2.5054,2.5012,2.5039,2.5021,2.5004,2.5012,2.4968,2.4977,2.4931,2.4934,2.4907,2.4925,2.4926,2.4911,2.4903,2.4913,2.4914,2.491,2.4903,2.4888,2.4888,2.4887,2.4887,0,2.5149,2.5116,2.5137,2.5105,2.5097,2.5118,2.5089,2.51,2.5077,2.5088,2.5088,2.505,2.5052,2.5016,2.5012,2.4993,2.5022,2.5007,2.5027,2.5021,2.5053,2.505,2.5171,2.5183,2.5066,2.5068,2.5069,0,2.5211,2.5229,2.5198,2.52,2.5189,2.5194,2.5192,2.5151,2.515,2.5132,2.5144,2.5142,2.5137,2.5142,2.5113,2.5109,2.5091,2.5134,2.509,2.5098,2.5087,2.5085,2.5085,2.5142,2.5144,2.5145,2.5146,0,2.5322,2.5303,2.5303,2.5295,2.5294,2.5287,2.5276,2.528,2.5235,2.5237,2.5237,2.5234,2.5227,2.5224,2.5214,2.52,2.5164,2.516,2.5166,2.5175,2.5185,2.5176,2.5049,2.5157,2.5156,2.5155,2.5154,2.5154,2.5406,2.5418,2.5397,2.5397,2.5384,2.5375,2.5382,2.5358,2.5358,2.5349,2.5325,2.5328,2.5309,2.5291,2.5279,2.5281,2.5259,2.527,2.5271,2.5274,2.5278,2.5187,2.5279,2.5279,2.5278,2.5278,2.5278,0,2.5511,2.5495,2.5495,2.548,2.5479,2.5447,2.5433,2.5434,2.5437,2.5422,2.5418,2.5417,2.5413,2.5384,2.5377,2.5383,2.5367,2.5383,2.538,2.5376,2.53,2.5293,2.5396,2.5396,2.5396,2.5396,2.5396,2.5396,2.5565,2.5583,2.5562,2.5572,2.5555,2.5557,2.5552,2.5542,2.5529,2.5529,2.5526,2.5507,2.5485,2.5476,2.547,2.5462,2.5459,2.548,2.5466,2.5394,2.5382,2.5371,2.5365,2.5481,2.5481,2.5542,2.5542,2.5543]},{"header":{"parameterUnit":"m.s-1","parameterCategory":1,"la1":30.2991,"la2":30.254,"lo1":-89.0895,"lo2":-89.0444,"dy":0.0017,"dx":0.0017,"nx":28,"ny":28,"refTime":"2025-06-16T21:00:00:Z","depth":0,"parameterNumber":3,"parameterNumberName":"V-component_of_WINDS"},"data":[0,0,0,0,0,0,0,0,0,0,0,0,0,0,0,0,0,0,0,0,0,0,0,0,0,0,0,0,0,0,0,0,0,0,0,0,0,0,0,0,0,0,0,0,0,0,0,0,0,0,0,0,0,0,0,0,0,0,5.1316,5.1318,0,5.1484,5.1486,5.1488,5.1456,5.1453,5.145,5.1447,5.1615,5.1622,5.1629,0,0,0,0,0,0,0,0,0,0,0,0,0,5.0964,5.0971,5.1316,5.1318,5.132,5.1484,5.1486,5.1488,5.1457,5.1453,5.1449,5.1446,5.1613,5.1621,5.163,0,0,0,0,0,0,0,0,0,0,0,0,0,5.1123,5.0973,5.1316,5.1324,5.1327,5.1483,5.1486,5.1489,5.1457,5.1453,5.1448,5.1444,5.161,5.162,5.1631,5.1788,0,0,5.1664,5.1669,0,0,0,0,0,0,0,0,5.1114,5.1136,5.1321,5.1324,5.1327,5.1445,5.1423,5.1589,5.1459,5.1408,5.1447,5.1442,5.1562,5.1576,5.1617,5.1796,5.1803,5.1665,5.1672,5.1677,5.168,0,0,0,0,0,0,0,5.1103,5.1128,5.1382,5.1324,5.1328,5.1318,5.1336,5.1454,5.1508,5.1412,5.141,5.143,5.1562,5.1607,5.1621,5.1806,5.1665,5.1675,5.1681,5.1686,5.2119,5.2124,0,0,0,0,0,0,5.109,5.1119,5.1377,5.1387,5.1207,5.1328,5.1348,5.1411,5.1506,5.1517,5.1434,5.1428,5.1591,5.1608,5.1627,5.1816,5.1677,5.1687,5.1693,5.2114,5.212,5.2126,0,0,0,0,0,0,5.1082,5.1113,5.137,5.1253,5.1285,5.1339,5.1411,5.1417,5.1462,5.1523,5.1532,5.147,5.1588,5.1612,5.1748,5.1821,5.1692,5.1702,5.2108,5.2116,5.2123,5.2196,0,0,0,0,0,0,5.1072,5.111,5.1172,5.1255,5.1291,5.1491,5.1415,5.1424,5.1481,5.1475,5.1559,5.1569,5.1586,5.1732,5.1759,5.1834,5.171,5.2102,5.2112,5.212,5.2187,5.2205,5.222,0,0,0,0,0,5.106,5.1185,5.1175,5.1206,5.137,5.1495,5.1516,5.1534,5.1487,5.1548,5.1588,5.1566,5.1809,5.1746,5.1776,5.1856,5.2097,5.2109,5.212,5.218,5.2201,5.222,0,0,0,0,0,0,5.1109,5.1196,5.1186,5.1343,5.1412,5.1489,5.1567,5.1556,5.1639,5.163,5.1648,5.1667,5.1806,5.1844,5.1773,5.2011,5.1946,5.1964,5.1982,5.2003,5.2019,5.2006,5.1719,0,0,0,0,0,5.1138,5.1234,5.1304,5.1435,5.1471,5.1513,5.1568,5.1576,5.1648,5.1677,5.1726,5.1795,5.1887,5.1947,5.2034,5.2192,5.2209,5.2261,5.2278,5.2291,5.2306,5.2391,5.2415,5.2162,5.2162,5.2162,0,0,5.1199,5.1258,5.1318,5.1447,5.1501,5.1598,5.1538,5.1644,5.1715,5.1692,5.1825,5.1863,5.1941,5.2089,5.2156,5.2125,5.2379,5.2305,5.2315,5.2324,5.2405,5.2429,5.245,5.217,5.2169,5.2167,0,0,5.136,5.1415,5.153,5.1586,5.1669,5.1696,5.1724,5.1803,5.1828,5.1961,5.1946,5.203,5.2188,5.2244,5.2293,5.2474,5.2457,5.2501,5.2587,5.267,5.269,5.2707,5.2771,5.2794,5.2516,5.2516,5.2517,0,5.1425,5.1572,5.159,5.1697,5.1754,5.1738,5.1853,5.1906,5.2013,5.2052,5.2016,5.2213,5.2264,5.2424,5.2468,5.2509,5.2539,5.2492,5.2686,5.2704,5.272,5.2781,5.2805,5.2521,5.2521,5.252,5.252,0,5.1647,5.1749,5.1832,5.1937,5.2002,5.2113,5.2146,5.221,5.2212,5.2242,5.2377,5.2438,5.2537,5.2575,5.2578,5.2735,5.2713,5.2682,5.2616,5.2749,5.2806,5.283,5.2528,5.2526,5.2525,5.2524,0,0,5.1844,5.1957,5.1987,5.2034,5.2124,5.2203,5.2312,5.241,5.2464,5.2538,5.2629,5.2762,5.2733,5.2789,5.2797,5.287,5.3007,5.2828,5.283,5.2859,5.3183,5.3206,5.3233,5.2996,5.3001,5.3004,5.3176,0,5.2013,5.2207,5.2226,5.2399,5.2493,5.2478,5.2573,5.2638,5.2669,5.2751,5.2784,5.2878,5.2833,5.2866,5.2938,5.2975,5.3072,5.2963,5.3079,5.3083,5.3061,5.3263,5.3288,5.3447,5.3198,5.3202,5.3205,0,5.2236,5.2318,5.2501,5.2577,5.2617,5.2702,5.2792,5.2872,5.2944,5.2961,5.3023,5.3022,5.3132,5.3062,5.3213,5.3139,5.3187,5.3213,5.3219,5.3231,5.3152,5.3279,5.3499,5.3522,5.3241,5.3238,5.3235,0,5.236,5.2516,5.2645,5.2686,5.2778,5.2838,5.2879,5.2947,5.3004,5.3083,5.312,5.321,5.3259,5.3328,5.335,5.3297,5.35,5.3432,5.3516,5.3515,5.3559,5.3556,5.3789,5.3591,5.3591,5.359,5.359,0,5.2547,5.2659,5.2702,5.2782,5.2906,5.2926,5.3048,5.3085,5.3146,5.3231,5.3223,5.3303,5.3327,5.3411,5.3428,5.355,5.3572,5.3588,5.3592,5.3589,5.3587,5.3621,5.361,5.3597,5.3595,5.3594,5.3593,0,5.2707,5.2741,5.2881,5.2957,5.2978,5.3067,5.3131,5.3206,5.3235,5.3343,5.3369,5.3415,5.3512,5.3541,5.3658,5.367,5.3813,5.3806,5.3789,5.3789,5.3871,5.3862,5.4133,5.4169,5.3948,5.395,5.3952,0,5.2824,5.291,5.2995,5.3052,5.3096,5.3188,5.3247,5.3268,5.3329,5.3417,5.3482,5.3578,5.3657,5.3813,5.3856,5.3945,5.394,5.4029,5.3953,5.3948,5.3941,5.3935,5.3943,5.4043,5.4045,5.4047,5.4049,0,5.3027,5.3039,5.3125,5.3216,5.3287,5.3359,5.3429,5.3476,5.3507,5.3575,5.3676,5.3737,5.3857,5.3952,5.4043,5.4083,5.4071,5.4072,5.4096,5.4094,5.4081,5.4088,5.3827,5.4066,5.4064,5.4063,5.4062,5.4061,5.3168,5.3244,5.3316,5.3411,5.3466,5.3531,5.3605,5.3644,5.3729,5.3829,5.3836,5.3944,5.4012,5.4132,5.4177,5.4261,5.4235,5.427,5.4278,5.4287,5.4293,5.4068,5.4277,5.4277,5.4276,5.4276,5.4276,0,5.337,5.3416,5.3503,5.3601,5.3676,5.3659,5.3735,5.3798,5.3894,5.3959,5.4037,5.4152,5.4244,5.4293,5.4385,5.4443,5.4439,5.4466,5.4462,5.4471,5.4312,5.4282,5.4467,5.4467,5.4467,5.4467,5.4467,5.4467,5.3484,5.3611,5.3631,5.3784,5.3828,5.3935,5.398,5.404,5.4092,5.422,5.4298,5.433,5.4388,5.4484,5.4567,5.4579,5.4613,5.4642,5.4651,5.4502,5.4482,5.4463,5.4435,5.465,5.465,5.4803,5.4805,5.4806]}]]